Year,Month,Day,Hour,Minute,Value (Times are PST for temperature in C)
2018,06,23,00,00,13.60
2018,06,23,00,01,13.60
2018,06,23,00,02,13.60
2018,06,23,00,03,13.60
2018,06,23,00,04,13.60
2018,06,23,00,05,13.60
2018,06,23,00,06,13.60
2018,06,23,00,07,13.60
2018,06,23,00,08,13.60
2018,06,23,00,09,13.60
2018,06,23,00,10,13.60
2018,06,23,00,11,13.60
2018,06,23,00,12,13.60
2018,06,23,00,13,13.60
2018,06,23,00,14,13.60
2018,06,23,00,15,13.60
2018,06,23,00,16,13.60
2018,06,23,00,17,13.60
2018,06,23,00,18,13.60
2018,06,23,00,19,13.60
2018,06,23,00,20,13.60
2018,06,23,00,21,13.60
2018,06,23,00,22,13.60
2018,06,23,00,23,13.60
2018,06,23,00,24,13.60
2018,06,23,00,25,13.60
2018,06,23,00,26,13.60
2018,06,23,00,27,13.60
2018,06,23,00,28,13.60
2018,06,23,00,29,13.60
2018,06,23,00,30,13.60
2018,06,23,00,31,13.60
2018,06,23,00,32,13.60
2018,06,23,00,33,13.60
2018,06,23,00,34,13.60
2018,06,23,00,35,13.60
2018,06,23,00,36,13.60
2018,06,23,00,37,13.60
2018,06,23,00,38,13.60
2018,06,23,00,39,13.60
2018,06,23,00,40,13.60
2018,06,23,00,41,13.60
2018,06,23,00,42,13.60
2018,06,23,00,43,13.60
2018,06,23,00,44,13.60
2018,06,23,00,45,13.60
2018,06,23,00,46,13.60
2018,06,23,00,47,13.60
2018,06,23,00,48,13.60
2018,06,23,00,49,13.60
2018,06,23,00,50,13.60
2018,06,23,00,51,13.60
2018,06,23,00,52,13.60
2018,06,23,00,53,13.60
2018,06,23,00,54,13.60
2018,06,23,00,55,13.60
2018,06,23,00,56,13.60
2018,06,23,00,57,13.60
2018,06,23,00,58,13.60
2018,06,23,00,59,13.60
2018,06,23,01,00,13.60
2018,06,23,01,01,13.60
2018,06,23,01,02,13.60
2018,06,23,01,03,13.60
2018,06,23,01,04,13.70
2018,06,23,01,05,13.70
2018,06,23,01,06,13.70
2018,06,23,01,07,13.70
2018,06,23,01,08,13.70
2018,06,23,01,09,13.70
2018,06,23,01,10,13.80
2018,06,23,01,11,13.80
2018,06,23,01,12,13.80
2018,06,23,01,13,13.80
2018,06,23,01,14,13.80
2018,06,23,01,15,13.80
2018,06,23,01,16,13.80
2018,06,23,01,17,13.90
2018,06,23,01,18,13.90
2018,06,23,01,19,13.90
2018,06,23,01,20,13.90
2018,06,23,01,21,13.90
2018,06,23,01,22,13.90
2018,06,23,01,23,13.90
2018,06,23,01,24,13.90
2018,06,23,01,25,13.90
2018,06,23,01,26,13.90
2018,06,23,01,27,13.90
2018,06,23,01,28,13.90
2018,06,23,01,29,13.90
2018,06,23,01,30,14.00
2018,06,23,01,31,14.00
2018,06,23,01,32,14.00
2018,06,23,01,33,14.00
2018,06,23,01,34,14.00
2018,06,23,01,35,14.10
2018,06,23,01,36,14.10
2018,06,23,01,37,14.10
2018,06,23,01,38,14.10
2018,06,23,01,39,14.10
2018,06,23,01,40,14.10
2018,06,23,01,41,14.20
2018,06,23,01,42,14.20
2018,06,23,01,43,14.20
2018,06,23,01,44,14.20
2018,06,23,01,45,14.20
2018,06,23,01,46,14.20
2018,06,23,01,47,14.20
2018,06,23,01,48,14.20
2018,06,23,01,49,14.20
2018,06,23,01,50,14.20
2018,06,23,01,51,14.20
2018,06,23,01,52,14.20
2018,06,23,01,53,14.20
2018,06,23,01,54,14.20
2018,06,23,01,55,14.20
2018,06,23,01,56,14.20
2018,06,23,01,57,14.20
2018,06,23,01,58,14.20
2018,06,23,01,59,14.20
2018,06,23,02,00,14.20
2018,06,23,02,01,14.20
2018,06,23,02,02,14.20
2018,06,23,02,03,14.20
2018,06,23,02,04,14.20
2018,06,23,02,05,14.20
2018,06,23,02,06,14.20
2018,06,23,02,07,14.20
2018,06,23,02,08,14.20
2018,06,23,02,09,14.20
2018,06,23,02,10,14.20
2018,06,23,02,11,14.20
2018,06,23,02,12,14.20
2018,06,23,02,13,14.20
2018,06,23,02,14,14.20
2018,06,23,02,15,14.20
2018,06,23,02,16,14.20
2018,06,23,02,17,14.20
2018,06,23,02,18,14.20
2018,06,23,02,19,14.20
2018,06,23,02,20,14.20
2018,06,23,02,21,14.20
2018,06,23,02,22,14.20
2018,06,23,02,23,14.20
2018,06,23,02,24,14.20
2018,06,23,02,25,14.20
2018,06,23,02,26,14.20
2018,06,23,02,27,14.20
2018,06,23,02,28,14.20
2018,06,23,02,29,14.20
2018,06,23,02,30,14.20
2018,06,23,02,31,14.20
2018,06,23,02,32,14.30
2018,06,23,02,33,14.30
2018,06,23,02,34,14.30
2018,06,23,02,35,14.30
2018,06,23,02,36,14.30
2018,06,23,02,37,14.30
2018,06,23,02,38,14.30
2018,06,23,02,39,14.30
2018,06,23,02,40,14.30
2018,06,23,02,41,14.30
2018,06,23,02,42,14.30
2018,06,23,02,43,14.30
2018,06,23,02,44,14.30
2018,06,23,02,45,14.30
2018,06,23,02,46,14.30
2018,06,23,02,47,14.30
2018,06,23,02,48,14.30
2018,06,23,02,49,14.30
2018,06,23,02,50,14.30
2018,06,23,02,51,14.30
2018,06,23,02,52,14.30
2018,06,23,02,53,14.30
2018,06,23,02,54,14.30
2018,06,23,02,55,14.30
2018,06,23,02,56,14.30
2018,06,23,02,57,14.30
2018,06,23,02,58,14.30
2018,06,23,02,59,14.30
2018,06,23,03,00,14.30
2018,06,23,03,01,14.30
2018,06,23,03,02,14.30
2018,06,23,03,03,14.30
2018,06,23,03,04,14.30
2018,06,23,03,05,14.30
2018,06,23,03,06,14.30
2018,06,23,03,07,14.30
2018,06,23,03,08,14.20
2018,06,23,03,09,14.20
2018,06,23,03,10,14.20
2018,06,23,03,11,14.20
2018,06,23,03,12,14.20
2018,06,23,03,13,14.20
2018,06,23,03,14,14.10
2018,06,23,03,15,14.10
2018,06,23,03,16,14.10
2018,06,23,03,17,14.10
2018,06,23,03,18,14.00
2018,06,23,03,19,14.00
2018,06,23,03,20,13.90
2018,06,23,03,21,13.90
2018,06,23,03,22,13.90
2018,06,23,03,23,13.90
2018,06,23,03,24,13.80
2018,06,23,03,25,13.80
2018,06,23,03,26,13.70
2018,06,23,03,27,13.70
2018,06,23,03,28,13.70
2018,06,23,03,29,13.60
2018,06,23,03,30,13.60
2018,06,23,03,31,13.50
2018,06,23,03,32,13.50
2018,06,23,03,33,13.40
2018,06,23,03,34,13.40
2018,06,23,03,35,13.40
2018,06,23,03,36,13.30
2018,06,23,03,37,13.30
2018,06,23,03,38,13.30
2018,06,23,03,39,13.30
2018,06,23,03,40,13.20
2018,06,23,03,41,13.20
2018,06,23,03,42,13.20
2018,06,23,03,43,13.10
2018,06,23,03,44,13.10
2018,06,23,03,45,13.10
2018,06,23,03,46,13.00
2018,06,23,03,47,13.00
2018,06,23,03,48,13.00
2018,06,23,03,49,12.90
2018,06,23,03,50,12.90
2018,06,23,03,51,12.90
2018,06,23,03,52,12.80
2018,06,23,03,53,12.80
2018,06,23,03,54,12.80
2018,06,23,03,55,12.80
2018,06,23,03,56,12.80
2018,06,23,03,57,12.70
2018,06,23,03,58,12.70
2018,06,23,03,59,12.70
2018,06,23,04,00,12.70
2018,06,23,04,01,12.70
2018,06,23,04,02,12.60
2018,06,23,04,03,12.60
2018,06,23,04,04,12.60
2018,06,23,04,05,12.60
2018,06,23,04,06,12.50
2018,06,23,04,07,12.50
2018,06,23,04,08,12.50
2018,06,23,04,09,12.40
2018,06,23,04,10,12.40
2018,06,23,04,11,12.40
2018,06,23,04,12,12.40
2018,06,23,04,13,12.40
2018,06,23,04,14,12.40
2018,06,23,04,15,12.30
2018,06,23,04,16,12.30
2018,06,23,04,17,12.30
2018,06,23,04,18,12.30
2018,06,23,04,19,12.30
2018,06,23,04,20,12.20
2018,06,23,04,21,12.20
2018,06,23,04,22,12.20
2018,06,23,04,23,12.20
2018,06,23,04,24,12.20
2018,06,23,04,25,12.10
2018,06,23,04,26,12.10
2018,06,23,04,27,12.10
2018,06,23,04,28,12.10
2018,06,23,04,29,12.00
2018,06,23,04,30,12.00
2018,06,23,04,31,12.00
2018,06,23,04,32,11.90
2018,06,23,04,33,11.90
2018,06,23,04,34,11.90
2018,06,23,04,35,11.90
2018,06,23,04,36,11.90
2018,06,23,04,37,11.90
2018,06,23,04,38,11.90
2018,06,23,04,39,11.80
2018,06,23,04,40,11.80
2018,06,23,04,41,11.80
2018,06,23,04,42,11.80
2018,06,23,04,43,11.80
2018,06,23,04,44,11.80
2018,06,23,04,45,11.80
2018,06,23,04,46,11.80
2018,06,23,04,47,11.80
2018,06,23,04,48,11.80
2018,06,23,04,49,11.80
2018,06,23,04,50,11.80
2018,06,23,04,51,11.80
2018,06,23,04,52,11.70
2018,06,23,04,53,11.80
2018,06,23,04,54,11.80
2018,06,23,04,55,11.80
2018,06,23,04,56,11.70
2018,06,23,04,57,11.80
2018,06,23,04,58,11.80
2018,06,23,04,59,11.80
2018,06,23,05,00,11.80
2018,06,23,05,01,11.80
2018,06,23,05,02,11.80
2018,06,23,05,03,11.80
2018,06,23,05,04,11.80
2018,06,23,05,05,11.80
2018,06,23,05,06,11.80
2018,06,23,05,07,11.80
2018,06,23,05,08,11.80
2018,06,23,05,09,11.80
2018,06,23,05,10,11.80
2018,06,23,05,11,11.80
2018,06,23,05,12,11.80
2018,06,23,05,13,11.80
2018,06,23,05,14,11.80
2018,06,23,05,15,11.80
2018,06,23,05,16,11.70
2018,06,23,05,17,11.70
2018,06,23,05,18,11.80
2018,06,23,05,19,11.80
2018,06,23,05,20,11.80
2018,06,23,05,21,11.80
2018,06,23,05,22,11.80
2018,06,23,05,23,11.80
2018,06,23,05,24,11.80
2018,06,23,05,25,11.80
2018,06,23,05,26,11.80
2018,06,23,05,27,11.80
2018,06,23,05,28,11.80
2018,06,23,05,29,11.80
2018,06,23,05,30,11.80
2018,06,23,05,31,11.80
2018,06,23,05,32,11.80
2018,06,23,05,33,11.80
2018,06,23,05,34,11.80
2018,06,23,05,35,11.80
2018,06,23,05,36,11.80
2018,06,23,05,37,11.80
2018,06,23,05,38,11.80
2018,06,23,05,39,11.80
2018,06,23,05,40,11.80
2018,06,23,05,41,11.80
2018,06,23,05,42,11.80
2018,06,23,05,43,11.80
2018,06,23,05,44,11.80
2018,06,23,05,45,11.80
2018,06,23,05,46,11.80
2018,06,23,05,47,11.80
2018,06,23,05,48,11.80
2018,06,23,05,49,11.80
2018,06,23,05,50,11.80
2018,06,23,05,51,11.80
2018,06,23,05,52,11.80
2018,06,23,05,53,11.80
2018,06,23,05,54,11.80
2018,06,23,05,55,11.80
2018,06,23,05,56,11.80
2018,06,23,05,57,11.80
2018,06,23,05,58,11.80
2018,06,23,05,59,11.80
2018,06,23,06,00,11.80
2018,06,23,06,01,11.80
2018,06,23,06,02,11.80
2018,06,23,06,03,11.80
2018,06,23,06,04,11.80
2018,06,23,06,05,11.80
2018,06,23,06,06,11.80
2018,06,23,06,07,11.80
2018,06,23,06,08,11.70
2018,06,23,06,09,11.70
2018,06,23,06,10,11.70
2018,06,23,06,11,11.70
2018,06,23,06,12,11.70
2018,06,23,06,13,11.70
2018,06,23,06,14,11.70
2018,06,23,06,15,11.70
2018,06,23,06,16,11.70
2018,06,23,06,17,11.70
2018,06,23,06,18,11.70
2018,06,23,06,19,11.70
2018,06,23,06,20,11.70
2018,06,23,06,21,11.70
2018,06,23,06,22,11.70
2018,06,23,06,23,11.70
2018,06,23,06,24,11.70
2018,06,23,06,25,11.70
2018,06,23,06,26,11.70
2018,06,23,06,27,11.80
2018,06,23,06,28,11.80
2018,06,23,06,29,11.90
2018,06,23,06,30,11.90
2018,06,23,06,31,12.00
2018,06,23,06,32,12.10
2018,06,23,06,33,12.20
2018,06,23,06,34,12.30
2018,06,23,06,35,12.40
2018,06,23,06,36,12.50
2018,06,23,06,37,12.50
2018,06,23,06,38,12.60
2018,06,23,06,39,12.70
2018,06,23,06,40,12.70
2018,06,23,06,41,12.80
2018,06,23,06,42,12.90
2018,06,23,06,43,12.90
2018,06,23,06,44,13.00
2018,06,23,06,45,13.10
2018,06,23,06,46,13.20
2018,06,23,06,47,13.30
2018,06,23,06,48,13.30
2018,06,23,06,49,13.40
2018,06,23,06,50,13.50
2018,06,23,06,51,13.60
2018,06,23,06,52,13.70
2018,06,23,06,53,13.80
2018,06,23,06,54,13.90
2018,06,23,06,55,13.90
2018,06,23,06,56,14.00
2018,06,23,06,57,14.10
2018,06,23,06,58,14.20
2018,06,23,06,59,14.30
2018,06,23,07,00,14.40
2018,06,23,07,01,14.40
2018,06,23,07,02,14.50
2018,06,23,07,03,14.50
2018,06,23,07,04,14.60
2018,06,23,07,05,14.70
2018,06,23,07,06,14.70
2018,06,23,07,07,14.80
2018,06,23,07,08,14.90
2018,06,23,07,09,14.90
2018,06,23,07,10,15.00
2018,06,23,07,11,15.10
2018,06,23,07,12,15.20
2018,06,23,07,13,15.30
2018,06,23,07,14,15.40
2018,06,23,07,15,15.50
2018,06,23,07,16,15.60
2018,06,23,07,17,15.70
2018,06,23,07,18,15.70
2018,06,23,07,19,15.80
2018,06,23,07,20,15.90
2018,06,23,07,21,16.00
2018,06,23,07,22,16.10
2018,06,23,07,23,16.10
2018,06,23,07,24,16.20
2018,06,23,07,25,16.40
2018,06,23,07,26,16.40
2018,06,23,07,27,16.50
2018,06,23,07,28,16.60
2018,06,23,07,29,16.70
2018,06,23,07,30,16.70
2018,06,23,07,31,16.80
2018,06,23,07,32,16.80
2018,06,23,07,33,16.80
2018,06,23,07,34,16.80
2018,06,23,07,35,16.90
2018,06,23,07,36,16.90
2018,06,23,07,37,16.90
2018,06,23,07,38,16.90
2018,06,23,07,39,16.90
2018,06,23,07,40,16.90
2018,06,23,07,41,16.90
2018,06,23,07,42,16.90
2018,06,23,07,43,16.90
2018,06,23,07,44,16.80
2018,06,23,07,45,16.80
2018,06,23,07,46,16.80
2018,06,23,07,47,16.80
2018,06,23,07,48,16.80
2018,06,23,07,49,16.80
2018,06,23,07,50,16.80
2018,06,23,07,51,16.80
2018,06,23,07,52,16.80
2018,06,23,07,53,16.80
2018,06,23,07,54,16.80
2018,06,23,07,55,16.80
2018,06,23,07,56,16.90
2018,06,23,07,57,16.90
2018,06,23,07,58,16.90
2018,06,23,07,59,16.90
2018,06,23,08,00,16.90
2018,06,23,08,01,16.90
2018,06,23,08,02,16.90
2018,06,23,08,03,17.00
2018,06,23,08,04,17.00
2018,06,23,08,05,17.10
2018,06,23,08,06,17.20
2018,06,23,08,07,17.30
2018,06,23,08,08,17.30
2018,06,23,08,09,17.50
2018,06,23,08,10,17.60
2018,06,23,08,11,17.70
2018,06,23,08,12,17.70
2018,06,23,08,13,17.80
2018,06,23,08,14,17.80
2018,06,23,08,15,17.80
2018,06,23,08,16,17.90
2018,06,23,08,17,18.00
2018,06,23,08,18,18.10
2018,06,23,08,19,18.20
2018,06,23,08,20,18.20
2018,06,23,08,21,18.30
2018,06,23,08,22,18.40
2018,06,23,08,23,18.50
2018,06,23,08,24,18.50
2018,06,23,08,25,18.60
2018,06,23,08,26,18.70
2018,06,23,08,27,18.70
2018,06,23,08,28,18.80
2018,06,23,08,29,18.90
2018,06,23,08,30,18.90
2018,06,23,08,31,19.00
2018,06,23,08,32,19.00
2018,06,23,08,33,19.10
2018,06,23,08,34,19.20
2018,06,23,08,35,19.20
2018,06,23,08,36,19.20
2018,06,23,08,37,19.30
2018,06,23,08,38,19.40
2018,06,23,08,39,19.40
2018,06,23,08,40,19.50
2018,06,23,08,41,19.50
2018,06,23,08,42,19.60
2018,06,23,08,43,19.70
2018,06,23,08,44,19.70
2018,06,23,08,45,19.70
2018,06,23,08,46,19.70
2018,06,23,08,47,19.70
2018,06,23,08,48,19.60
2018,06,23,08,49,19.70
2018,06,23,08,50,19.60
2018,06,23,08,51,19.70
2018,06,23,08,52,19.70
2018,06,23,08,53,19.70
2018,06,23,08,54,19.70
2018,06,23,08,55,19.70
2018,06,23,08,56,19.70
2018,06,23,08,57,19.60
2018,06,23,08,58,19.60
2018,06,23,08,59,19.60
2018,06,23,09,00,19.60
2018,06,23,09,01,19.60
2018,06,23,09,02,19.60
2018,06,23,09,03,19.50
2018,06,23,09,04,19.50
2018,06,23,09,05,19.50
2018,06,23,09,06,19.50
2018,06,23,09,07,19.50
2018,06,23,09,08,19.40
2018,06,23,09,09,19.40
2018,06,23,09,10,19.40
2018,06,23,09,11,19.40
2018,06,23,09,12,19.40
2018,06,23,09,13,19.40
2018,06,23,09,14,19.50
2018,06,23,09,15,19.50
2018,06,23,09,16,19.50
2018,06,23,09,17,19.60
2018,06,23,09,18,19.60
2018,06,23,09,19,19.70
2018,06,23,09,20,19.70
2018,06,23,09,21,19.80
2018,06,23,09,22,19.80
2018,06,23,09,23,19.90
2018,06,23,09,24,19.90
2018,06,23,09,25,19.90
2018,06,23,09,26,19.80
2018,06,23,09,27,19.80
2018,06,23,09,28,19.80
2018,06,23,09,29,19.70
2018,06,23,09,30,19.70
2018,06,23,09,31,19.70
2018,06,23,09,32,19.70
2018,06,23,09,33,19.70
2018,06,23,09,34,19.70
2018,06,23,09,35,19.70
2018,06,23,09,36,19.70
2018,06,23,09,37,19.60
2018,06,23,09,38,19.60
2018,06,23,09,39,19.50
2018,06,23,09,40,19.50
2018,06,23,09,41,19.40
2018,06,23,09,42,19.40
2018,06,23,09,43,19.30
2018,06,23,09,44,19.30
2018,06,23,09,45,19.20
2018,06,23,09,46,19.10
2018,06,23,09,47,19.00
2018,06,23,09,48,18.90
2018,06,23,09,49,18.80
2018,06,23,09,50,18.80
2018,06,23,09,51,18.70
2018,06,23,09,52,18.70
2018,06,23,09,53,18.60
2018,06,23,09,54,18.60
2018,06,23,09,55,18.60
2018,06,23,09,56,18.60
2018,06,23,09,57,18.50
2018,06,23,09,58,18.50
2018,06,23,09,59,18.50
2018,06,23,10,00,18.50
2018,06,23,10,01,18.40
2018,06,23,10,02,18.40
2018,06,23,10,03,18.40
2018,06,23,10,04,18.40
2018,06,23,10,05,18.40
2018,06,23,10,06,18.30
2018,06,23,10,07,18.30
2018,06,23,10,08,18.20
2018,06,23,10,09,18.20
2018,06,23,10,10,18.20
2018,06,23,10,11,18.10
2018,06,23,10,12,18.10
2018,06,23,10,13,18.10
2018,06,23,10,14,18.10
2018,06,23,10,15,18.10
2018,06,23,10,16,18.10
2018,06,23,10,17,18.10
2018,06,23,10,18,18.10
2018,06,23,10,19,18.10
2018,06,23,10,20,18.20
2018,06,23,10,21,18.20
2018,06,23,10,22,18.30
2018,06,23,10,23,18.40
2018,06,23,10,24,18.40
2018,06,23,10,25,18.40
2018,06,23,10,26,18.50
2018,06,23,10,27,18.50
2018,06,23,10,28,18.50
2018,06,23,10,29,18.60
2018,06,23,10,30,18.60
2018,06,23,10,31,18.70
2018,06,23,10,32,18.80
2018,06,23,10,33,18.80
2018,06,23,10,34,18.80
2018,06,23,10,35,18.90
2018,06,23,10,36,18.90
2018,06,23,10,37,18.90
2018,06,23,10,38,19.00
2018,06,23,10,39,19.00
2018,06,23,10,40,18.90
2018,06,23,10,41,18.90
2018,06,23,10,42,18.90
2018,06,23,10,43,18.90
2018,06,23,10,44,18.90
2018,06,23,10,45,18.90
2018,06,23,10,46,19.00
2018,06,23,10,47,19.00
2018,06,23,10,48,19.10
2018,06,23,10,49,19.10
2018,06,23,10,50,19.10
2018,06,23,10,51,19.20
2018,06,23,10,52,19.30
2018,06,23,10,53,19.40
2018,06,23,10,54,19.40
2018,06,23,10,55,19.50
2018,06,23,10,56,19.60
2018,06,23,10,57,19.60
2018,06,23,10,58,19.60
2018,06,23,10,59,19.60
2018,06,23,11,00,19.60
2018,06,23,11,01,19.60
2018,06,23,11,02,19.60
2018,06,23,11,03,19.60
2018,06,23,11,04,19.60
2018,06,23,11,05,19.60
2018,06,23,11,06,19.50
2018,06,23,11,07,19.50
2018,06,23,11,08,19.50
2018,06,23,11,09,19.50
2018,06,23,11,10,19.60
2018,06,23,11,11,19.60
2018,06,23,11,12,19.60
2018,06,23,11,13,19.70
2018,06,23,11,14,19.70
2018,06,23,11,15,19.80
2018,06,23,11,16,19.90
2018,06,23,11,17,19.90
2018,06,23,11,18,20.00
2018,06,23,11,19,20.00
2018,06,23,11,20,20.00
2018,06,23,11,21,20.00
2018,06,23,11,22,20.00
2018,06,23,11,23,20.00
2018,06,23,11,24,19.90
2018,06,23,11,25,19.90
2018,06,23,11,26,19.90
2018,06,23,11,27,19.90
2018,06,23,11,28,19.90
2018,06,23,11,29,19.80
2018,06,23,11,30,19.80
2018,06,23,11,31,19.90
2018,06,23,11,32,20.00
2018,06,23,11,33,20.00
2018,06,23,11,34,20.10
2018,06,23,11,35,20.10
2018,06,23,11,36,20.20
2018,06,23,11,37,20.20
2018,06,23,11,38,20.20
2018,06,23,11,39,20.20
2018,06,23,11,40,20.20
2018,06,23,11,41,20.20
2018,06,23,11,42,20.20
2018,06,23,11,43,20.10
2018,06,23,11,44,20.00
2018,06,23,11,45,19.90
2018,06,23,11,46,19.90
2018,06,23,11,47,19.80
2018,06,23,11,48,19.70
2018,06,23,11,49,19.70
2018,06,23,11,50,19.80
2018,06,23,11,51,19.80
2018,06,23,11,52,19.80
2018,06,23,11,53,19.70
2018,06,23,11,54,19.60
2018,06,23,11,55,19.50
2018,06,23,11,56,19.30
2018,06,23,11,57,19.20
2018,06,23,11,58,19.10
2018,06,23,11,59,19.00
2018,06,23,12,00,18.90
2018,06,23,12,01,18.90
2018,06,23,12,02,18.80
2018,06,23,12,03,18.80
2018,06,23,12,04,18.80
2018,06,23,12,05,18.90
2018,06,23,12,06,19.00
2018,06,23,12,07,19.00
2018,06,23,12,08,19.10
2018,06,23,12,09,19.10
2018,06,23,12,10,19.10
2018,06,23,12,11,19.10
2018,06,23,12,12,19.20
2018,06,23,12,13,19.20
2018,06,23,12,14,19.30
2018,06,23,12,15,19.40
2018,06,23,12,16,19.40
2018,06,23,12,17,19.40
2018,06,23,12,18,19.40
2018,06,23,12,19,19.30
2018,06,23,12,20,19.30
2018,06,23,12,21,19.30
2018,06,23,12,22,19.20
2018,06,23,12,23,19.20
2018,06,23,12,24,19.20
2018,06,23,12,25,19.10
2018,06,23,12,26,19.10
2018,06,23,12,27,19.10
2018,06,23,12,28,19.20
2018,06,23,12,29,19.20
2018,06,23,12,30,19.30
2018,06,23,12,31,19.40
2018,06,23,12,32,19.50
2018,06,23,12,33,19.60
2018,06,23,12,34,19.70
2018,06,23,12,35,19.70
2018,06,23,12,36,19.70
2018,06,23,12,37,19.70
2018,06,23,12,38,19.70
2018,06,23,12,39,19.60
2018,06,23,12,40,19.60
2018,06,23,12,41,19.60
2018,06,23,12,42,19.50
2018,06,23,12,43,19.50
2018,06,23,12,44,19.50
2018,06,23,12,45,19.60
2018,06,23,12,46,19.60
2018,06,23,12,47,19.60
2018,06,23,12,48,19.70
2018,06,23,12,49,19.80
2018,06,23,12,50,19.80
2018,06,23,12,51,19.90
2018,06,23,12,52,20.00
2018,06,23,12,53,20.00
2018,06,23,12,54,20.10
2018,06,23,12,55,20.10
2018,06,23,12,56,20.10
2018,06,23,12,57,20.10
2018,06,23,12,58,20.00
2018,06,23,12,59,20.00
2018,06,23,13,00,20.00
2018,06,23,13,01,20.10
2018,06,23,13,02,20.10
2018,06,23,13,03,20.10
2018,06,23,13,04,20.10
2018,06,23,13,05,20.10
2018,06,23,13,06,20.10
2018,06,23,13,07,20.10
2018,06,23,13,08,20.00
2018,06,23,13,09,20.00
2018,06,23,13,10,20.00
2018,06,23,13,11,20.00
2018,06,23,13,12,20.00
2018,06,23,13,13,20.00
2018,06,23,13,14,20.00
2018,06,23,13,15,20.00
2018,06,23,13,16,20.10
2018,06,23,13,17,20.20
2018,06,23,13,18,20.20
2018,06,23,13,19,20.30
2018,06,23,13,20,20.30
2018,06,23,13,21,20.40
2018,06,23,13,22,20.40
2018,06,23,13,23,20.40
2018,06,23,13,24,20.40
2018,06,23,13,25,20.30
2018,06,23,13,26,20.20
2018,06,23,13,27,20.20
2018,06,23,13,28,20.20
2018,06,23,13,29,20.20
2018,06,23,13,30,20.20
2018,06,23,13,31,20.20
2018,06,23,13,32,20.30
2018,06,23,13,33,20.30
2018,06,23,13,34,20.40
2018,06,23,13,35,20.40
2018,06,23,13,36,20.40
2018,06,23,13,37,20.40
2018,06,23,13,38,20.50
2018,06,23,13,39,20.50
2018,06,23,13,40,20.50
2018,06,23,13,41,20.50
2018,06,23,13,42,20.50
2018,06,23,13,43,20.50
2018,06,23,13,44,20.40
2018,06,23,13,45,20.40
2018,06,23,13,46,20.40
2018,06,23,13,47,20.40
2018,06,23,13,48,20.30
2018,06,23,13,49,20.30
2018,06,23,13,50,20.30
2018,06,23,13,51,20.30
2018,06,23,13,52,20.30
2018,06,23,13,53,20.30
2018,06,23,13,54,20.20
2018,06,23,13,55,20.20
2018,06,23,13,56,20.20
2018,06,23,13,57,20.10
2018,06,23,13,58,20.10
2018,06,23,13,59,20.00
2018,06,23,14,00,20.00
2018,06,23,14,01,19.90
2018,06,23,14,02,19.90
2018,06,23,14,03,19.90
2018,06,23,14,04,19.80
2018,06,23,14,05,19.80
2018,06,23,14,06,19.70
2018,06,23,14,07,19.70
2018,06,23,14,08,19.70
2018,06,23,14,09,19.60
2018,06,23,14,10,19.70
2018,06,23,14,11,19.70
2018,06,23,14,12,19.70
2018,06,23,14,13,19.70
2018,06,23,14,14,19.70
2018,06,23,14,15,19.80
2018,06,23,14,16,19.80
2018,06,23,14,17,19.90
2018,06,23,14,18,20.10
2018,06,23,14,19,20.20
2018,06,23,14,20,20.30
2018,06,23,14,21,20.30
2018,06,23,14,22,20.40
2018,06,23,14,23,20.50
2018,06,23,14,24,20.60
2018,06,23,14,25,20.70
2018,06,23,14,26,20.80
2018,06,23,14,27,20.80
2018,06,23,14,28,20.90
2018,06,23,14,29,21.00
2018,06,23,14,30,21.00
2018,06,23,14,31,21.00
2018,06,23,14,32,21.00
2018,06,23,14,33,21.00
2018,06,23,14,34,20.90
2018,06,23,14,35,20.90
2018,06,23,14,36,20.90
2018,06,23,14,37,20.90
2018,06,23,14,38,20.90
2018,06,23,14,39,21.00
2018,06,23,14,40,21.10
2018,06,23,14,41,21.10
2018,06,23,14,42,21.20
2018,06,23,14,43,21.20
2018,06,23,14,44,21.20
2018,06,23,14,45,21.20
2018,06,23,14,46,21.30
2018,06,23,14,47,21.30
2018,06,23,14,48,21.30
2018,06,23,14,49,21.30
2018,06,23,14,50,21.30
2018,06,23,14,51,21.30
2018,06,23,14,52,21.30
2018,06,23,14,53,21.20
2018,06,23,14,54,21.30
2018,06,23,14,55,21.30
2018,06,23,14,56,21.30
2018,06,23,14,57,21.30
2018,06,23,14,58,21.30
2018,06,23,14,59,21.20
2018,06,23,15,00,21.20
2018,06,23,15,01,21.20
2018,06,23,15,02,21.20
2018,06,23,15,03,21.20
2018,06,23,15,04,21.20
2018,06,23,15,05,21.20
2018,06,23,15,06,21.20
2018,06,23,15,07,21.30
2018,06,23,15,08,21.30
2018,06,23,15,09,21.40
2018,06,23,15,10,21.50
2018,06,23,15,11,21.50
2018,06,23,15,12,21.50
2018,06,23,15,13,21.40
2018,06,23,15,14,21.40
2018,06,23,15,15,21.40
2018,06,23,15,16,21.40
2018,06,23,15,17,21.30
2018,06,23,15,18,21.30
2018,06,23,15,19,21.30
2018,06,23,15,20,21.30
2018,06,23,15,21,21.30
2018,06,23,15,22,21.30
2018,06,23,15,23,21.20
2018,06,23,15,24,21.20
2018,06,23,15,25,21.30
2018,06,23,15,26,21.30
2018,06,23,15,27,21.40
2018,06,23,15,28,21.50
2018,06,23,15,29,21.50
2018,06,23,15,30,21.50
2018,06,23,15,31,21.50
2018,06,23,15,32,21.40
2018,06,23,15,33,21.40
2018,06,23,15,34,21.40
2018,06,23,15,35,21.40
2018,06,23,15,36,21.40
2018,06,23,15,37,21.40
2018,06,23,15,38,21.40
2018,06,23,15,39,21.40
2018,06,23,15,40,21.40
2018,06,23,15,41,21.40
2018,06,23,15,42,21.40
2018,06,23,15,43,21.40
2018,06,23,15,44,21.40
2018,06,23,15,45,21.40
2018,06,23,15,46,21.30
2018,06,23,15,47,21.30
2018,06,23,15,48,21.30
2018,06,23,15,49,21.30
2018,06,23,15,50,21.30
2018,06,23,15,51,21.30
2018,06,23,15,52,21.30
2018,06,23,15,53,21.30
2018,06,23,15,54,21.30
2018,06,23,15,55,21.30
2018,06,23,15,56,21.30
2018,06,23,15,57,21.40
2018,06,23,15,58,21.50
2018,06,23,15,59,21.60
2018,06,23,16,00,21.60
2018,06,23,16,01,21.70
2018,06,23,16,02,21.80
2018,06,23,16,03,21.80
2018,06,23,16,04,21.80
2018,06,23,16,05,21.80
2018,06,23,16,06,21.80
2018,06,23,16,07,21.80
2018,06,23,16,08,21.80
2018,06,23,16,09,21.80
2018,06,23,16,10,21.80
2018,06,23,16,11,21.80
2018,06,23,16,12,21.90
2018,06,23,16,13,21.90
2018,06,23,16,14,21.90
2018,06,23,16,15,22.00
2018,06,23,16,16,22.00
2018,06,23,16,17,22.00
2018,06,23,16,18,22.00
2018,06,23,16,19,22.00
2018,06,23,16,20,22.00
2018,06,23,16,21,22.00
2018,06,23,16,22,22.00
2018,06,23,16,23,22.10
2018,06,23,16,24,22.10
2018,06,23,16,25,22.10
2018,06,23,16,26,22.10
2018,06,23,16,27,22.00
2018,06,23,16,28,22.10
2018,06,23,16,29,22.10
2018,06,23,16,30,22.10
2018,06,23,16,31,22.00
2018,06,23,16,32,21.90
2018,06,23,16,33,21.90
2018,06,23,16,34,21.90
2018,06,23,16,35,21.80
2018,06,23,16,36,21.80
2018,06,23,16,37,21.80
2018,06,23,16,38,21.80
2018,06,23,16,39,21.80
2018,06,23,16,40,21.80
2018,06,23,16,41,21.80
2018,06,23,16,42,21.80
2018,06,23,16,43,21.80
2018,06,23,16,44,21.80
2018,06,23,16,45,21.80
2018,06,23,16,46,21.80
2018,06,23,16,47,21.80
2018,06,23,16,48,21.70
2018,06,23,16,49,21.70
2018,06,23,16,50,21.70
2018,06,23,16,51,21.70
2018,06,23,16,52,21.60
2018,06,23,16,53,21.60
2018,06,23,16,54,21.50
2018,06,23,16,55,21.50
2018,06,23,16,56,21.40
2018,06,23,16,57,21.40
2018,06,23,16,58,21.30
2018,06,23,16,59,21.30
2018,06,23,17,00,21.40
2018,06,23,17,01,21.40
2018,06,23,17,02,21.30
2018,06,23,17,03,21.30
2018,06,23,17,04,21.30
2018,06,23,17,05,21.30
2018,06,23,17,06,21.30
2018,06,23,17,07,21.30
2018,06,23,17,08,21.30
2018,06,23,17,09,21.30
2018,06,23,17,10,21.30
2018,06,23,17,11,21.30
2018,06,23,17,12,21.30
2018,06,23,17,13,21.30
2018,06,23,17,14,21.30
2018,06,23,17,15,21.30
2018,06,23,17,16,21.30
2018,06,23,17,17,21.30
2018,06,23,17,18,21.30
2018,06,23,17,19,21.20